User: anonymous   Login
Location: Unspecified
(0.0000°N, 0.0000°E)
Time: 21:28:02
(UTC+00:00)
Language:

Tandem-X - Orbit

View from above orbital plane
View from above orbital plane
View from above satellite
View from above satellite

Ground track
Ground track

The orbit data is extracted from the following two-line orbital elements,

1 36605U 10030A   18197.93170067 -.00001768  00000-0 -81022-4 0  9994
2 36605  97.4443 204.9604 0001828  80.8201   6.4835 15.19147254447545
Epoch (UTC): 16 July 2018 22:21:38
Eccentricity: 0.0001828
inclination: 97.4443°
perigee height: 507 km
apogee height: 509 km
right ascension of ascending node: 204.9604°
argument of perigee: 80.8201°
revolutions per day: 15.19147254
mean anomaly at epoch: 6.4835°
orbit number at epoch: 44754

The dashed part of the orbit path shows where the satellite is in the earth's shadow,  

DLR